SCD 1 1 22490U 93009B 25341.32475797 .00000831 00000+0 17638-3 0 9996 2 22490 24.9707 312.1140 0041731 267.4179 235.7721 14.45993022733315 TECHSAT 1B (GO-32) 1 25397U 98043D 25341.22761564 .00000193 00000+0 10380-3 0 9995 2 25397 98.9914 324.3126 0002185 66.2353 293.9054 14.24374707424001 SCD 2 1 25504U 98060A 25341.25085249 .00000658 00000+0 13276-3 0 9999 2 25504 24.9933 175.7425 0016594 254.8702 266.3305 14.45418714432522 DLR-TUBSAT 1 25757U 99029B 25341.22300673 .00000273 00000+0 78776-4 0 9993 2 25757 98.6558 325.5666 0013594 210.0792 149.9623 14.52354352405383 TERRA 1 25994U 99068A 25341.32452640 .00000985 00000+0 21017-3 0 9997 2 25994 97.9756 33.2076 0003509 108.8220 318.6631 14.60943335381595 MAROC-TUBSAT 1 27004U 01056D 25341.21078527 -.00000018 00000+0 32829-4 0 9999 2 27004 99.7911 149.5589 0019086 274.8569 264.8411 13.70252464199893 AQUA 1 27424U 02022A 25341.29057041 .00002129 00000+0 43645-3 0 9996 2 27424 98.4032 302.0810 0000920 113.6327 352.8487 14.61789686255235 IRS-P6 (RESOURCESAT-1) 1 28051U 03046A 25341.29467382 .00000413 00000+0 15265-3 0 9994 2 28051 98.2186 21.9540 0063887 197.0583 299.1425 14.36071177152982 SHIYAN-1 (SY-1) 1 28220U 04012A 25341.16192477 .00019993 00000+0 73490-3 0 9999 2 28220 97.8940 42.3724 0005997 347.2961 12.8125 15.27929306181718 AURA 1 28376U 04026A 25341.24213799 .00002151 00000+0 44906-3 0 9994 2 28376 98.3180 291.4432 0001177 93.5167 266.6168 14.60927322138181 IRS-P5 (CARTOSAT-1) 1 28649U 05017A 25341.04235662 .00003025 00000+0 31615-3 0 9993 2 28649 97.5494 7.7084 0001601 50.7068 309.4292 14.90376472115198 SINAH 1 1 28893U 05043D 25341.28264885 .00000993 00000+0 19872-3 0 9990 2 28893 98.2601 109.8254 0015038 153.2770 206.9210 14.63953224 72445 EROS B 1 29079U 06014A 25341.25690348 .00194203 00000+0 18516-2 0 9991 2 29079 97.3490 97.5783 0001726 263.3516 96.7548 15.66165032 89946 RESURS-DK 1 1 29228U 06021A 25340.81068160 .00005106 00000+0 30169-3 0 9999 2 29228 69.9341 117.1593 0007734 263.3376 96.6910 15.12110904 73482 ARIRANG-2 (KOMPSAT-2) 1 29268U 06031A 25341.24455444 .00000758 00000+0 15137-3 0 9993 2 29268 97.8270 169.9855 0013761 327.4052 87.3068 14.64486388 33387 LAPAN-TUBSAT 1 29709U 07001A 25341.25754129 .00001203 00000+0 14521-3 0 9996 2 29709 98.1252 331.3015 0013638 90.5292 269.7485 14.85657922 22655 HAIYANG-1B 1 31113U 07010A 25341.21029933 .00000236 00000+0 10554-3 0 9999 2 31113 98.3309 325.7170 0014482 53.3397 306.9116 14.30962174973177 COSMO-SKYMED 1 1 31598U 07023A 25341.23563140 .00005682 00000+0 51560-3 0 9997 2 31598 97.8835 166.5993 0001110 79.3403 280.7942 14.95703261 1085 TERRASAR-X 1 31698U 07026A 25340.59292322 .00002777 00000+0 13541-3 0 9999 2 31698 97.4444 346.0634 0001783 82.9925 277.1512 15.19149934 23984 WORLDVIEW-1 (WV-1) 1 32060U 07041A 25341.33665982 .00013456 00000+0 54879-3 0 9994 2 32060 97.3846 98.8947 0000736 101.0462 259.0858 15.24556700 13652 YAOGAN-3 1 32289U 07055A 25341.24196874 .00004117 00000+0 43451-3 0 9999 2 32289 97.8368 7.9167 0001473 77.3903 282.7480 14.89819825977279 COSMO-SKYMED 2 1 32376U 07059A 25341.22869593 .00001105 00000+0 14537-3 0 9990 2 32376 97.8813 162.6354 0001524 86.8527 273.2860 14.82155671973562 RADARSAT-2 1 32382U 07061A 25341.24767447 .00000156 00000+0 77285-4 0 9992 2 32382 98.5799 345.9177 0001079 91.7023 268.4283 14.29985228938522 CARTOSAT-2A 1 32783U 08021A 25341.25806861 .00001691 00000+0 23592-3 0 9995 2 32783 97.7938 31.2527 0012224 21.8989 338.2743 14.78921988950434 HUANJING 1A (HJ-1A) 1 33320U 08041A 25341.29974281 .00002812 00000+0 34794-3 0 9993 2 33320 97.6537 329.8253 0020478 51.5636 308.7412 14.83368551929952 HUANJING 1B (HJ-1B) 1 33321U 08041B 25341.25625112 .00002319 00000+0 28938-3 0 9991 2 33321 97.6395 333.4949 0038250 93.1614 267.3977 14.82799882929964 GEOEYE 1 1 33331U 08042A 25341.25979276 .00001204 00000+0 23467-3 0 9990 2 33331 98.1258 52.6088 0002835 300.9862 59.1062 14.64801321922054 THEOS 1 33396U 08049A 25341.25638723 .00000167 00000+0 98264-4 0 9992 2 33396 98.5876 39.5076 0001110 100.4502 259.6800 14.20094771890725 COSMO-SKYMED 3 1 33412U 08054A 25341.28448165 .00007682 00000+0 54028-3 0 9997 2 33412 97.8455 191.5845 0015737 192.4817 167.6022 15.05273536928056 YAOGAN-4 1 33446U 08061A 25341.27223004 .00002652 00000+0 33520-3 0 9990 2 33446 97.9176 271.4251 0014060 341.8774 18.1937 14.82655941917223 GOSAT (IBUKI) 1 33492U 09002A 25341.20610396 .00001744 00000+0 31591-3 0 9991 2 33492 98.0770 89.8863 0001013 87.0443 273.0877 14.67538112903304 DEIMOS-1 1 35681U 09041A 25341.28699836 .00001338 00000+0 20617-3 0 9996 2 35681 97.7153 142.1446 0002695 90.5898 269.5621 14.74940019878597 DUBAISAT-1 1 35682U 09041B 25341.29797450 .00002627 00000+0 40161-3 0 9997 2 35682 97.9790 112.0582 0009886 333.3498 26.7201 14.74580627876812 OCEANSAT-2 1 35931U 09051A 25341.25749045 -.00000153 00000+0 -78820-4 0 9996 2 35931 98.2227 342.4141 0016433 59.3110 300.9673 13.99625869852481 WORLDVIEW-2 (WV-2) 1 35946U 09055A 25341.30939025 .00000390 00000+0 14433-3 0 9991 2 35946 98.4766 52.4694 0005394 79.9320 280.2475 14.37649091848079 SMOS 1 36036U 09059A 25341.24085625 .00000739 00000+0 24984-3 0 9996 2 36036 98.4385 166.3706 0001134 84.9916 275.1402 14.39733927845839 YAOGAN-7 1 36110U 09069A 25341.14410205 .00001269 00000+0 18369-3 0 9994 2 36110 98.0304 222.9209 0023570 300.3256 59.5623 14.77719456861263 TANDEM-X 1 36605U 10030A 25340.59292381 .00003514 00000+0 17046-3 0 9990 2 36605 97.4449 346.0630 0002111 96.3345 263.8130 15.19146828857408 CARTOSAT-2B 1 36795U 10035A 25341.29706134 .00001459 00000+0 20504-3 0 9998 2 36795 97.7860 30.5042 0012907 93.6726 266.5962 14.78777105831493 YAOGAN-10 1 36834U 10038A 25341.32610535 .00003166 00000+0 38137-3 0 9996 2 36834 97.9142 1.1872 0001506 85.0677 36.5004 14.84576739828732 COSMO-SKYMED 4 1 37216U 10060A 25341.30887673 .00001097 00000+0 14436-3 0 9990 2 37216 97.8813 162.7141 0001362 82.9550 277.1818 14.82158620816141 RESOURCESAT-2 1 37387U 11015A 25341.29577257 .00000313 00000+0 16284-3 0 9995 2 37387 98.7884 44.8719 0006659 56.6946 303.4868 14.21594027758916 HAIYANG-2A 1 37781U 11043A 25341.26259014 .00000001 00000+0 44335-4 0 9992 2 37781 99.3378 342.2815 0001661 91.8502 268.2840 13.78834636720234 RASAT 1 37791U 11044D 25341.23574532 .00001252 00000+0 22670-3 0 9992 2 37791 98.0656 70.5753 0021935 81.6593 300.0382 14.67897933765025 SRMSAT 1 37841U 11058D 25341.17103722 .00000533 00000+0 14552-3 0 9996 2 37841 19.9699 141.6553 0011709 251.5973 264.6047 14.11508539730650 PLEIADES 1A 1 38012U 11076F 25341.24149861 .00000849 00000+0 19239-3 0 9996 2 38012 98.1831 54.0948 0001343 79.1328 312.7714 14.58553558744017 ZIYUAN 1-02C (ZY 1-02C) 1 38038U 11079A 25341.32801109 .00000960 00000+0 33167-3 0 9996 2 38038 98.4342 47.4414 0006972 153.5102 279.8740 14.38003126731634 ZIYUAN 3-1 (ZY 3-1) 1 38046U 12001A 25341.28908493 .00093621 00000+0 85556-3 0 9995 2 38046 97.1761 47.5833 0001999 16.7912 343.3415 15.67541747774118 ARIRANG-3 (KOMPSAT-3) 1 38338U 12025B 25341.26681252 .00001183 00000+0 24712-3 0 9993 2 38338 98.3316 295.8152 0005750 356.5168 3.5992 14.61701609723308 EXACTVIEW-1 (ADS-1B) 1 38709U 12039C 25341.26650656 .00000323 00000+0 15800-3 0 9997 2 38709 98.9635 89.5417 0010958 9.9723 350.1671 14.24904531695372 SPOT 6 1 38755U 12047A 25341.31876845 .00000813 00000+0 18450-3 0 9991 2 38755 98.1581 46.2029 0001067 101.8892 258.2427 14.58595679705087 PLEIADES 1B 1 39019U 12068A 25341.26931195 .00000846 00000+0 19182-3 0 9991 2 39019 98.1802 54.0074 0001217 87.1590 272.9748 14.58545026692874 GOKTURK 2 1 39030U 12073A 25341.22288316 .00001182 00000+0 18162-3 0 9997 2 39030 97.6904 183.1478 0000877 102.7620 257.3688 14.75279629696208 LANDSAT 8 1 39084U 13008A 25341.30015258 .00000839 00000+0 19622-3 0 9997 2 39084 98.2079 49.4538 0001129 86.0633 274.0695 14.57106079669951 SARAL 1 39086U 13009A 25341.28040629 .00000265 00000+0 11339-3 0 9997 2 39086 98.5505 165.2820 0002744 118.9579 241.1880 14.32754200668126 GAOFEN-1 1 39150U 13018A 25341.28063013 .00001565 00000+0 23129-3 0 9995 2 39150 97.9333 52.0363 0017916 160.1078 200.0834 14.76519558679921 VNREDSAT 1 1 39160U 13021B 25341.29383500 .00001340 00000+0 25911-3 0 9999 2 39160 97.9381 36.7595 0001317 83.0367 277.0986 14.64910667672190 ARIRANG-5 (KOMPSAT-5) 1 39227U 13042A 25341.28949156 .00002729 00000+0 19915-3 0 9999 2 39227 97.6149 165.6717 0003908 72.5059 287.6594 15.04524920675003 SKYSAT-A 1 39418U 13066C 25341.11388867 .00005607 00000+0 33285-3 0 9999 2 39418 97.4110 31.4935 0020563 257.4018 102.4913 15.11539872659458 DUBAISAT-2 1 39419U 13066D 25341.27463988 .00008199 00000+0 53201-3 0 9994 2 39419 97.4441 331.8506 0011085 340.9155 19.1656 15.08274429657441 GPM-CORE 1 39574U 14009C 25341.25365119 .00021316 00000+0 44708-3 0 9997 2 39574 64.9740 231.0644 0010523 269.7953 90.1982 15.45363162668164 SENTINEL-1A 1 39634U 14016A 25341.29901557 .00000382 00000+0 90704-4 0 9996 2 39634 98.1803 346.6208 0001245 89.0861 271.0481 14.59199239622037 KAZEOSAT 1 1 39731U 14024A 25341.30871198 .00000514 00000+0 16948-3 0 9996 2 39731 98.3441 53.3379 0001072 99.8646 260.2664 14.42057999610908 ALOS-2 1 39766U 14029A 25341.26474461 .00003441 00000+0 46764-3 0 9997 2 39766 97.9233 76.1891 0001458 104.9983 255.1390 14.79458027623205 KAZEOSAT 2 1 40010U 14033A 25341.30250479 .00001410 00000+0 17046-3 0 9997 2 40010 97.5515 185.8978 0007431 226.6097 133.4500 14.85154547620471 HODOYOSHI-4 1 40011U 14033B 25341.29450433 .00003220 00000+0 35961-3 0 9995 2 40011 97.5416 170.4471 0022852 219.1624 140.7941 14.87451958620273 DEIMOS-2 1 40013U 14033D 25341.28527390 .00004268 00000+0 41643-3 0 9990 2 40013 97.6071 217.2652 0001008 93.6615 266.4720 14.92938422609088 HODOYOSHI-3 1 40015U 14033F 25341.02907618 .00002965 00000+0 35257-3 0 9995 2 40015 97.6196 147.1127 0031826 267.4936 92.2635 14.84776118619101 SPOT 7 1 40053U 14034A 25341.26195042 .00001123 00000+0 23970-3 0 9998 2 40053 98.0914 43.4636 0001521 94.5247 265.6128 14.60723459609119 SKYSAT-B 1 40072U 14037D 25341.23739817 .00002970 00000+0 33583-3 0 9995 2 40072 98.3603 284.6528 0005697 166.9125 193.2239 14.87295534617423 WORLDVIEW-3 (WV-3) 1 40115U 14048A 25341.31844125 .00002052 00000+0 24395-3 0 9995 2 40115 97.8619 53.6670 0004371 203.2503 156.8515 14.85491335613431 GAOFEN-2 1 40118U 14049A 25341.26724526 .00001552 00000+0 20913-3 0 9991 2 40118 98.0393 40.4261 0008389 128.7326 231.4637 14.80593902610837 YAOGAN-21 1 40143U 14053A 25341.29690884 .00009695 00000+0 40736-3 0 9997 2 40143 97.1758 24.8464 0010062 58.4978 301.7242 15.23580161625711 YAOGAN-22 1 40275U 14063A 25341.15624615 -.00000033 00000+0 35733-4 0 9998 2 40275 100.7419 124.4969 0005913 261.7419 98.3022 13.15522422534569 ASNARO 1 40298U 14070A 25341.27305152 .00016012 00000+0 75992-3 0 9999 2 40298 97.3659 57.3542 0005360 137.1465 223.0188 15.19324815614869 YAOGAN-24 1 40310U 14072A 25341.32168153 .00001915 00000+0 28423-3 0 9993 2 40310 98.1224 112.3864 0014484 154.7933 205.3986 14.76159871595410 CBERS 4 1 40336U 14079A 25341.28831989 .00000306 00000+0 12084-3 0 9996 2 40336 98.3318 39.4916 0001522 120.5397 239.5940 14.35514708576423 YAOGAN-26 1 40362U 14088A 25341.27322177 .00026950 00000+0 69754-3 0 9997 2 40362 97.0641 342.1425 0006837 45.2571 314.9231 15.39015344608106 SMAP 1 40376U 15003A 25341.28497558 .00001068 00000+0 21586-3 0 9991 2 40376 98.1290 346.0874 0001212 87.7132 272.4209 14.63334482579552 KOMPSAT-3A 1 40536U 15014A 25341.23558176 .00028408 00000+0 63102-3 0 9997 2 40536 97.6785 315.2789 0004300 138.5802 221.5772 15.43652195592105 SENTINEL-2A 1 40697U 15028A 25341.32657060 .00000326 00000+0 14084-3 0 9996 2 40697 98.5700 53.9365 0001025 94.4949 265.6352 14.30824228546294 GAOFEN-8 1 40701U 15030A 25341.30607060 .00027244 00000+0 72134-3 0 9996 2 40701 97.6910 159.1831 0011350 156.9225 203.2532 15.38280161581875 CARBONITE 1 (CBNT-1) 1 40718U 15032D 25341.24998204 .00004285 00000+0 53624-3 0 9995 2 40718 97.6402 162.5362 0014076 199.7344 160.3327 14.82704507560898 YAOGAN-27 1 40878U 15040A 25341.30345866 -.00000011 00000+0 83268-4 0 9990 2 40878 100.1007 331.1695 0007675 300.1320 59.9033 13.16059991492424 GAOFEN-9 01 1 40894U 15047A 25341.26373339 .00002318 00000+0 29372-3 0 9992 2 40894 97.6545 20.4557 0028745 51.6435 308.7356 14.82401881551758 YAOGAN-28 1 41026U 15064A 25341.32071565 .00013416 00000+0 55156-3 0 9992 2 41026 97.2810 119.2670 0012156 143.7882 216.4181 15.24216998561424 YAOGAN-29 1 41038U 15069A 25341.28646136 .00000905 00000+0 11844-3 0 9992 2 41038 98.0223 4.4405 0000449 355.0125 5.1083 14.82873565542183 KENT RIDGE 1 1 41167U 15077B 25340.93903879 .00007094 00000+0 27242-3 0 9990 2 41167 14.9795 254.1844 0008573 48.4513 311.6543 15.21567192551757 GAOFEN-4 1 41194U 15083A 25341.11711420 -.00000330 00000+0 00000+0 0 9993 2 41194 0.1556 80.9701 0003595 105.7672 37.2751 1.00271915 36609 JASON-3 1 41240U 16002A 25341.23564757 -.00000042 00000+0 79895-4 0 9992 2 41240 66.0391 169.3962 0007129 270.5070 89.5132 12.87626278462531 SENTINEL-3A 1 41335U 16011A 25341.27097874 .00000305 00000+0 14415-3 0 9999 2 41335 98.6214 46.3602 0000969 92.4257 267.7034 14.26743516510691 ZIYUAN 3-2 (ZY 3-2) 1 41556U 16033A 25341.26173966 .00010766 00000+0 48189-3 0 9991 2 41556 97.4049 55.5190 0012350 270.4874 89.4946 15.21385434528803 CARTOSAT-2C 1 41599U 16040A 25341.26417372 .00007910 00000+0 37826-3 0 9991 2 41599 97.4769 38.5709 0010962 81.7897 278.4580 15.19214447524577 SKYSAT-C1 1 41601U 16040C 25341.04024945 .00014203 00000+0 45538-3 0 9993 2 41601 96.9827 18.3759 0002954 31.3205 328.8214 15.32437876528405 LAPAN-A3 1 41603U 16040E 25341.27182691 .00006282 00000+0 20873-3 0 9996 2 41603 97.1424 339.0271 0010332 354.4002 5.7123 15.31485968525421 BIROS 1 41604U 16040F 25341.05777617 .00189994 00000+0 71317-3 0 9992 2 41604 97.0680 12.2729 0003067 160.5680 199.5710 15.87363914527825 GAOFEN-3 1 41727U 16049A 25341.32345997 .00000176 00000+0 66618-4 0 9992 2 41727 98.4040 346.9924 0001509 70.0717 290.0635 14.42211805490996 SKYSAT-C4 1 41771U 16058B 25341.02253527 .00021813 00000+0 51267-3 0 9999 2 41771 96.9374 6.4890 0000998 131.1429 228.9905 15.42009981515795 SKYSAT-C5 1 41772U 16058C 25341.07770443 .00015551 00000+0 45247-3 0 9999 2 41772 97.0761 25.0549 0002751 118.8514 241.3007 15.35504726514297 SKYSAT-C2 1 41773U 16058D 25341.01775484 .00017335 00000+0 47916-3 0 9991 2 41773 97.0359 5.7876 0004782 49.0966 311.0693 15.37079918515481 SKYSAT-C3 1 41774U 16058E 25341.07478084 .00026445 00000+0 57873-3 0 9999 2 41774 96.9299 15.0858 0001510 103.5824 256.5594 15.44107425516388 ALSAT 1B 1 41785U 16059C 25341.29989856 .00000885 00000+0 14824-3 0 9999 2 41785 97.7816 353.3244 0010558 119.1656 241.0609 14.72067005492343 PATHFINDER 1 1 41787U 16059E 25341.26743635 .00001465 00000+0 26603-3 0 9994 2 41787 97.8138 344.2950 0030038 97.8185 262.6432 14.67306494491568 SCATSAT 1 1 41790U 16059H 25341.10880824 .00003025 00000+0 40717-3 0 9999 2 41790 98.1469 37.7090 0056007 145.8081 214.6757 14.78907408 73191 GOKTURK 1A 1 41875U 16073A 25341.23577100 .00001030 00000+0 21110-3 0 9993 2 41875 98.1437 233.6745 0001241 82.8677 277.2665 14.62769909480768 RESOURCESAT-2A 1 41877U 16074A 25341.27811551 .00000345 00000+0 17751-3 0 9995 2 41877 98.7765 51.1658 0001124 280.5589 79.5461 14.21596065467033 CARTOSAT-2D 1 41948U 17008A 25341.23232344 .00008184 00000+0 39212-3 0 9990 2 41948 97.4394 38.8136 0004185 180.1803 179.9431 15.19176107488431 SENTINEL-2B 1 42063U 17013A 25341.24943109 .00000324 00000+0 14011-3 0 9992 2 42063 98.5724 53.7724 0001125 97.7742 262.3568 14.30812808457198 CARTOSAT-2E 1 42767U 17036C 25341.24875757 .00008625 00000+0 41239-3 0 9995 2 42767 97.4560 38.9070 0002371 265.0388 95.0576 15.19239300469005 FORMOSAT-5 1 42920U 17049A 25341.25635684 .00000516 00000+0 14148-3 0 9994 2 42920 98.2458 55.6840 0010112 314.0369 45.9993 14.51000429438846 SENTINEL-5P 1 42969U 17064A 25341.12793747 .00000173 00000+0 10308-3 0 9998 2 42969 98.7777 279.7621 0000962 86.5939 273.5347 14.19515254422318 SKYSAT-C11 1 42987U 17068A 25341.11769111 .00031875 00000+0 62933-3 0 9993 2 42987 97.4145 118.4722 0000935 107.9063 252.2289 15.47101007453446 SKYSAT-C10 1 42988U 17068B 25341.30827860 .00017132 00000+0 55810-3 0 9997 2 42988 97.4263 112.1454 0005269 118.9905 241.1865 15.31889286452961 SKYSAT-C9 1 42989U 17068C 25341.08929906 .00020396 00000+0 58543-3 0 9999 2 42989 97.4192 111.3002 0010692 106.0149 254.2273 15.35831782453216 SKYSAT-C8 1 42990U 17068D 25341.21366376 .00016602 00000+0 52704-3 0 9990 2 42990 97.4285 111.1910 0001973 9.2198 350.9080 15.32737888452866 SKYSAT-C7 1 42991U 17068E 25341.30307929 .00017016 00000+0 54962-3 0 9998 2 42991 97.4292 112.3265 0007846 74.0573 286.1533 15.32149266452942 SKYSAT-C6 1 42992U 17068F 25340.95216904 .00015242 00000+0 50599-3 0 9992 2 42992 97.4325 112.4175 0005195 98.5499 261.6332 15.31307672452877 CARTOSAT-2F 1 43111U 18004A 25341.28158133 .00007785 00000+0 37305-3 0 9996 2 43111 97.4321 39.0073 0000669 138.0909 222.0377 15.19193213438194 GAOFEN-1 02 1 43259U 18031A 25341.30316996 .00001838 00000+0 27149-3 0 9993 2 43259 98.0814 39.0903 0001419 234.9006 125.2070 14.76463470414387 GAOFEN-1 03 1 43260U 18031B 25341.28136176 .00001870 00000+0 27643-3 0 9997 2 43260 98.0803 38.9461 0002335 345.0519 15.0621 14.76420107414372 GAOFEN-1 04 1 43262U 18031D 25341.25705759 .00001866 00000+0 27573-3 0 9992 2 43262 98.0816 39.0902 0001195 60.1488 299.9841 14.76432951414369 SENTINEL-3B 1 43437U 18039A 25341.17406409 .00000287 00000+0 13669-3 0 9992 2 43437 98.6272 46.4388 0001510 108.2092 251.9253 14.26739546396742 GAOFEN-5 01 1 43461U 18043A 25341.16729588 .00000944 00000+0 20515-3 0 9997 2 43461 98.4317 304.0375 0001332 359.9517 0.1682 14.60400345403665 GAOFEN-6 1 43484U 18048A 25341.29680302 .00001602 00000+0 23652-3 0 9998 2 43484 97.8039 45.7464 0013295 79.8131 280.4578 14.76551470405070 GAOFEN-11 01 1 43585U 18063A 25341.26312467 .00021073 00000+0 39055-3 0 9996 2 43585 97.1563 44.2442 0004653 337.8920 22.2130 15.48994439410571 ICESAT-2 1 43613U 18070A 25341.23628683 .00018409 00000+0 66956-3 0 9992 2 43613 92.0049 239.2517 0001850 161.1246 199.0072 15.28194413403145 HYSIS 1 43719U 18096A 25341.23011874 .00002510 00000+0 34983-3 0 9996 2 43719 98.0102 44.2349 0001547 63.2214 296.9156 14.78622733379052 KAZSTSAT 1 43783U 18099AB 25341.06209538 .00003093 00000+0 25766-3 0 9993 2 43783 97.4553 16.4911 0006249 352.8314 7.2819 14.99325399382519 SAUDISAT 5A 1 43831U 18102A 25341.28135133 .00009448 00000+0 37433-3 0 9999 2 43831 97.3357 41.5782 0011818 92.8875 267.3716 15.25556096386395 SAUDISAT 5B 1 43833U 18102C 25341.27310188 .00009736 00000+0 38147-3 0 9998 2 43833 97.3452 44.2989 0012515 95.4171 264.8495 15.25911347386508 GAOFEN-10R 1 44622U 19066A 25341.25969155 .00003225 00000+0 40556-3 0 9991 2 44622 98.0274 288.7446 0008156 57.0332 303.1665 14.82763392333939 CARTOSAT-3 1 44804U 19081A 25341.22965067 .00007115 00000+0 33943-3 0 9999 2 44804 97.4589 40.8825 0013963 104.3505 255.9281 15.19301472334321 GAOFEN-12 01 1 44819U 19082A 25341.26924968 .00000969 00000+0 13282-3 0 9999 2 44819 97.8126 347.6939 0001185 270.7561 89.3515 14.80647694325690 CSG-1 1 44873U 19092A 25341.25401095 .00001220 00000+0 15977-3 0 9994 2 44873 97.8812 162.6608 0001462 86.1907 273.9473 14.82152657323044 NEMO-HD 1 46277U 20061F 25341.23709493 .00015065 00000+0 37735-3 0 9991 2 46277 97.2215 40.4058 0002162 63.5007 296.6461 15.40160110292395 SENTINEL-6A 1 46984U 20086A 25341.25292966 -.00000051 00000+0 45197-4 0 9999 2 46984 66.0392 173.7046 0007742 269.2363 90.7766 12.80930326235748 GAOFEN-12 02 1 48079U 21026A 25341.26721957 .00001027 00000+0 14055-3 0 9990 2 48079 97.9849 335.3001 0003410 111.7602 248.3973 14.80665190253362 PLEIADES NEO 3 1 48268U 21034A 25341.25834418 .00000168 00000+0 28001-4 0 9997 2 48268 97.8949 53.7780 0001299 96.8524 263.2837 14.81669121249231 PLEIADES NEO 4 1 49070U 21073E 25341.22456605 .00000599 00000+0 82711-4 0 9993 2 49070 97.8950 53.7407 0001306 94.2752 265.8610 14.81674422232942 LANDSAT 9 1 49260U 21088A 25341.12853409 .00000837 00000+0 19577-3 0 9996 2 49260 98.2100 49.3208 0001107 94.0679 266.0646 14.57121431223032 CSG-2 1 51444U 22008A 25341.28776500 .00000894 00000+0 11881-3 0 9992 2 51444 97.8813 162.6932 0001490 88.3618 271.7766 14.82155172208162 GAOFEN-12 03 1 52912U 22069A 25341.22638880 .00002213 00000+0 30215-3 0 9991 2 52912 97.8488 228.7026 0002297 71.7844 288.3618 14.79589489186222 SWOT 1 54754U 22173A 25341.27650214 .00000169 00000+0 11614-3 0 9993 2 54754 77.6101 294.3649 0000350 127.8236 232.2947 14.00173483152292 GAOFEN-12 04 1 57654U 23123A 25341.26248895 .00002719 00000+0 36909-3 0 9995 2 57654 97.9121 257.1028 0001404 72.7871 287.3494 14.79675777124244 PARS 1 1 59065U 24039Q 25341.27838820 .00017481 00000+0 42733-3 0 9998 2 59065 97.4633 312.0961 0012690 88.2971 271.9729 15.40795313 99041 RESURS-P 4 1 59371U 24061A 25341.28644000 .00006381 00000+0 20886-3 0 9991 2 59371 97.2542 287.7282 0001913 53.3697 306.7721 15.32021326 94373 LEGION 1 1 59625U 24081A 25341.25509329 .00007623 00000+0 39567-3 0 9992 2 59625 97.5217 55.9409 0004368 340.5658 19.5407 15.16398789 88441 LEGION 2 1 59626U 24081B 25341.28816953 .00008200 00000+0 42512-3 0 9996 2 59626 97.5222 56.0605 0005980 316.1479 43.9279 15.16411233 88458 ALOS-4 (DAICHI-4) 1 60182U 24123A 25341.28411291 .00003969 00000+0 53805-3 0 9992 2 60182 97.9231 76.2092 0001375 100.7556 259.3811 14.79468397 77502 LEGION 3 1 60452U 24146A 25341.28582063 .00008189 00000+0 43531-3 0 9997 2 60452 45.0028 339.3681 0014246 168.6251 191.4952 15.15675330 72902 LEGION 4 1 60453U 24146B 25341.28659644 .00008291 00000+0 44031-3 0 9998 2 60453 45.0390 71.0991 0009899 282.4807 77.4964 15.15739143 71750 SENTINEL-2C 1 60989U 24157A 25341.14466556 .00000306 00000+0 13332-3 0 9996 2 60989 98.5687 53.7075 0001158 98.7823 261.3491 14.30814111 65524 IONOSFERA-M 1 1 61735U 24199A 25341.27178515 .00000154 00000+0 88358-4 0 9993 2 61735 98.7415 211.1618 0001227 29.7046 330.4201 14.22712198100414 IONOSFERA-M 2 1 61736U 24199B 25341.23611078 .00000166 00000+0 93766-4 0 9998 2 61736 98.7413 211.0390 0001500 117.1421 242.9910 14.22714345103538 BIOMASS 1 63772U 25090A 25341.23123614 .00003242 00000+0 58005-3 0 9999 2 63772 98.0701 166.3209 0001259 76.4322 283.7023 14.67537255 32533 GOSAT-GW (IBUKI GW) 1 64694U 25141A 25341.25983021 .00002069 00000+0 37303-3 0 9992 2 64694 98.0424 276.8720 0001519 83.4929 276.6449 14.67559319 23699 IONOSFERA-M 3 1 64876U 25155A 25341.22251025 .00000183 00000+0 10309-3 0 9990 2 64876 98.5776 303.2450 0002352 68.7136 291.4292 14.21438950 19135 IONOSFERA-M 4 1 64877U 25155B 25341.25758044 .00000167 00000+0 96039-4 0 9994 2 64877 98.5775 303.1987 0001707 69.1403 290.9957 14.21440006 19131 MICROCARB 1 64899U 25156A 25341.14479359 .00001373 00000+0 22598-3 0 9994 2 64899 98.0029 56.5797 0016773 162.0264 198.1540 14.72042923 19710 CO3D 3 1 64900U 25156B 25341.18257084 .00009997 00000+0 46423-3 0 9993 2 64900 97.4344 57.6298 0001306 113.3886 246.7487 15.20207661 20368 CO3D 4 1 64901U 25156C 25341.24854511 .00009912 00000+0 46046-3 0 9997 2 64901 97.4341 57.6950 0001042 227.9750 132.1396 15.20198063 20373 CO3D 2 1 64902U 25156D 25341.28102461 .00000562 00000+0 29077-4 0 9990 2 64902 97.4343 57.6252 0000907 92.9461 267.1878 15.20195391 20374 CO3D 1 1 64903U 25156E 25341.28117616 .00008606 00000+0 40016-3 0 9991 2 64903 97.4343 57.6255 0000984 106.1160 254.0184 15.20204732 20372 SENTINEL-6B 1 66514U 25264A 25339.31345389 .00000013 00000+0 30182-3 0 9999 2 66514 66.0393 177.9170 0011548 268.4031 91.5664 12.85877769 2335